Weather Roundup
Issued by NWS

Home | Current Version | Previous Version | Text Only | Print | Product List | Glossary On
Versions: 1 2 3 4 5 6 7 8 9 10 11 12 13 14 15 16 17 18 19 20 21 22 23 24 25 26 27 28 29 30 31 32 33 34 35 36 37 38 39 40 41 42 43 44 45 46 47 48 49 50
000
NZUS93 KARX 022359
HRRWXR

CURRENT HOURLY OBSERVATIONS ACROSS
MUCH OF THE UPPER MISSISSIPPI VALLEY
NATIONAL WEATHER SERVICE LA CROSSE WI
700 PM CDT MON MAY 02 2016


...SOUTHEAST MINNESOTA...


CITY           SKY/WX    TMP DP  RH WIND       PRES   REMARKS
ROCHESTER      CLOUDY    60  41  49 SW5       30.03R
ROCHESTER/MAYO CLOUDY    63  35  34 SW7       30.02S
WINONA         SUNNY     63  34  34 CALM      30.01S
AUSTIN         SUNNY     59  39  47 CALM      30.02S
ALBERT LEA     NOT AVBL
DODGE CENTER   PTSUNNY   63  37  39 SW6       30.01F
PRESTON        SUNNY     58  39  50 S6        30.03S
OWATONNA       PTSUNNY   64  30  27 W9        30.01S
FARIBAULT      SUNNY     64  30  27 W3        30.01S
$$

...ELSEWHERE IN MINNESOTA...


CITY           SKY/WX    TMP DP  RH WIND       PRES   REMARKS
MINNEAPOLIS    MOSUNNY   66  29  24 W7        30.00S
INTNL FALLS    SUNNY     67  26  21 W6        29.93F
DULUTH         MOSUNNY   61  30  31 S10       29.97F
RED WING       MOSUNNY   64  34  32 SE5       29.99S
REDWOOD FALLS  MOSUNNY   63  34  33 S7        29.99S
MANKATO        MOSUNNY   64  32  29 SW8       30.01S
WORTHINGTON    SUNNY     60  40  47 SW3       30.02F
FAIRMONT       MOSUNNY   61  34  36 W6        30.02S
$$

...SOUTHWEST WISCONSIN...


CITY           SKY/WX    TMP DP  RH WIND       PRES   REMARKS
LA CROSSE      CLOUDY    64  33  31 SW5       30.00F
PRAIRIE DU CHI CLOUDY    61  34  35 CALM      30.02S
BOSCOBEL       PTSUNNY   63  33  32 CALM      30.02S
LONE ROCK      NOT AVBL
PLATTEVILLE    PTSUNNY   60  35  38 CALM      30.02S
FORT MC COY    CLOUDY    62  33  33 CALM      30.02S
MAUSTON-NEW LI NOT AVBL
VIROQUA        CLOUDY    59  37  42 CALM      30.02S
WIS DELLS      CLOUDY    61  29  29 CALM      30.00S
$$

...ELSEWHERE IN WISCONSIN...


CITY           SKY/WX    TMP DP  RH WIND       PRES   REMARKS
MILWAUKEE      PTCLDY    50  33  52 NE6       30.03S
MADISON        PTCLDY    58  35  42 NE5       30.00S
GREEN BAY      CLEAR     60  35  39 SE10      30.00F
EAU CLAIRE     NOT AVBL
BLACK RVR FLS  FAIR      63  32  30 CALM      30.00F
MEDFORD        MOSUNNY   59  36  41 SW5       30.00S
WAUSAU         PTSUNNY   62  33  33 NW7       29.97F
WIS RAPIDS     SUNNY     63  30  28 N6        30.01F
MARSHFIELD     SUNNY     62  32  32 NW3       29.99F
RICE LAKE      SUNNY     64  29  26 SW6       30.01S
$$

...NORTHEAST IOWA...


CITY           SKY/WX    TMP DP  RH WIND       PRES   REMARKS
WATERLOO       CLOUDY    59  37  44 W3        30.03S
DUBUQUE        PTSUNNY   58  39  49 CALM      30.03S
DECORAH        CLOUDY    61  36  39 CALM      30.02S
MASON CITY     SUNNY     60  39  45 SW6       30.04S
CHARLES CITY   PTSUNNY   61  36  39 S5        30.04S
OELWEIN        MOSUNNY   59  41  51 CALM      30.04S
$$

...ELSEWHERE IN IOWA...


CITY           SKY/WX    TMP DP  RH WIND       PRES   REMARKS
DES MOINES     MOSUNNY   60  37  42 E6        30.04S
IOWA CITY      CLOUDY    55  46  71 W3        30.05S
FORT DODGE     MOSUNNY   61  41  48 S5        30.04S
MARSHALLTOWN   PTSUNNY   60  40  47 CALM      30.03S
CEDAR RAPIDS   CLOUDY    57  43  59 S3        30.03S
$$

...NORTHERN ILLINOIS...


CITY           SKY/WX    TMP DP  RH WIND       PRES   REMARKS
CHICAGO-OHARE  MOCLDY    55  31  39 NE9       30.01S
CHICAGO-MIDWAY MOCLDY    55  34  45 NE10      30.02S
MOLINE         CLOUDY    58  43  57 CALM      30.02S
ROCKFORD       CLOUDY    58  39  49 NW3       30.03S
PEORIA         CLOUDY    56  45  66 NW6       30.02R
$$

NOTE: "FAIR" INDICATES FEW OR NO CLOUDS BELOW 12,000 FEET WITH NO
SIGNIFICANT WEATHER AND/OR OBSTRUCTIONS TO VISIBILITY. WIND
SPEEDS ARE IN MILES-PER-HOUR.




USA.gov is the U.S. government's official web portal to all federal, state and local government web resources and services.